CZ-6A DEB, 64653

Orbit data source: Space-Track

CZ-6A DEB, 64653 is space debris in LEO originally from a launch on Tue, 06 Aug 2024 UTC launched from the Taiyaun Space Center, China (TSC). Debris objects in space refer to the collection of defunct objects orbiting the Earth. Examples of debris include non-operational satellites, rocket bodies, and fragments generated from explosions, collisions, or faulty payload assembly.

Loading next visibility...
Identifier
64653, 2024-140AET
Orbit
LEO
Country
Flag of CNCN / PRC
Related business
Manufacturer
SAST
Mission
Spacecraft
Bus & Motor
Unknown
Mass
Unknown
Launch date (UTC)
2024-08-06 (2 years ago)
Launch vehicle
Unknown
Launch site
Taiyaun Space Center, China (TSC)
Object type
Payload
Rocket body
Debris
Shape & HBR
Unknown shape, 0.1 m
Radar Cross Section
Small (<0.1 m²)

Expand to show TLE details & history
Last TLE update: 15 hours ago

TLE from 15 hours ago
0 CZ-6A DEB
1 64653U 24140AET 26171.22735273  .00053997  00000-0  36080-2 0  9995
2 64653  88.9285 261.7130 0048175 165.5491 194.7138 15.05796117 89666
Epoch: 2026-06-20T05:27Z
TLE epoch observation values (Epoch: 2026-06-20T05:27:23.275Z)
Latitude
-0.00002°
Longitude
-88.57898°
Altitude
584.533 km
Speed
7.55 km/s
True Right ascension
17h 26m 51s
True Declination
0° 00' 00"
Sunlit
Object was in full shadow at epoch
Visualization orbit readout
Latitude
Unknown
Longitude
Unknown
Altitude
Unknown
Speed
Unknown
Apparent Right ascension
Unknown
Apparent Declination
Unknown
Sunlit
N/A
Visualization observer readout
Local Sidereal Time
07:19:04
Azimuth
Unknown
Elevation
Unknown
Doppler factor
Unknown
Orbital elements
Apogee altitude
579.249 km
Perigee altitude
512.536 km
Semi-major axis
6,924.03 km
Eccentricity
0.00482
Inclination
88.9285°
RAAN
261.713°
Arg. of periapsis
165.5491°
True anomaly
194.5744°
Mean anomaly
194.7138°
Eccentric anomaly
194.64402°
Mean motion
3.76708 °/min
Orbital period
95.56 mins
BSTAR
0.003608
Loading maneuver chart data...
Computing Atmospheric mass density...
Loading historical data...
Loading historical data...
Loading historical data...
Loading historical data...
Loading historical data...
Loading historical data...
Loading historical data...

Documentation

Showing up to 5 results
|